| time (UTC) | temp F | wind direction | speed MPH | gust MPH | rain 1hr in | rain 24hr in | rain mn in | humidity % | barometer mb |
| 20260901124515 | 69 | 344 | 9.0 | 13.0 | 0.00 | 0.04 | 0.00 | 75 | 1011.5 |
| 20260901122515 | 68 | 286 | 7.0 | 13.0 | 0.00 | 0.04 | 0.00 | 79 | 1011.5 |
| 20260901115514 | 67 | 236 | 6.0 | 14.0 | 0.00 | 0.04 | 0.00 | 81 | 1011.6 |
| 20260901114514 | 66 | 311 | 7.0 | 12.0 | 0.00 | 0.04 | 0.00 | 81 | 1011.7 |
| 20260901113514 | 67 | 329 | 8.0 | 16.0 | 0.00 | 0.04 | 0.00 | 81 | 1011.6 |
| 20260901105515 | 66 | 304 | 7.0 | 12.0 | 0.00 | 0.05 | 0.00 | 86 | 1011.5 |
| 20260901103515 | 64 | 286 | 9.0 | 15.0 | 0.00 | 0.09 | 0.00 | 85 | 1011.5 |
| 20260901102515 | 65 | 337 | 8.0 | 15.0 | 0.00 | 0.12 | 0.00 | 85 | 1011.3 |
| 20260901101515 | 65 | 330 | 10.0 | 15.0 | 0.00 | 0.13 | 0.00 | 84 | 1011.4 |
| 20260901100514 | 65 | 275 | 10.0 | 16.0 | 0.00 | 0.13 | 0.00 | 85 | 1011.1 |
| 20260901093514 | 65 | 323 | 10.0 | 16.0 | 0.00 | 0.13 | 0.00 | 86 | 1011.0 |
| 20260901092515 | 65 | 335 | 6.0 | 16.0 | 0.00 | 0.13 | 0.00 | 88 | 1010.9 |
| 20260901090515 | 64 | 335 | 7.0 | 13.0 | 0.00 | 0.13 | 0.00 | 88 | 1010.7 |
| 20260901080514 | 63 | 296 | 7.0 | 14.0 | 0.00 | 0.13 | 0.00 | 90 | 1010.0 |
| 20260901075515 | 63 | 267 | 7.0 | 14.0 | 0.00 | 0.13 | 0.00 | 91 | 1009.9 |
| 20260901073514 | 63 | 288 | 7.0 | 13.0 | 0.00 | 0.13 | 0.00 | 91 | 1009.7 |
| 20260901070514 | 63 | 263 | 6.0 | 9.0 | 0.00 | 0.13 | 0.00 | 93 | 1009.5 |
| 20260901064516 | 62 | 303 | 5.0 | 10.0 | 0.00 | 0.13 | 0.00 | 94 | 1009.3 |
| 20260901062515 | 61 | 285 | 4.0 | 10.0 | 0.00 | 0.13 | 0.00 | 95 | 1009.1 |
| 20260901061515 | 61 | 288 | 2.0 | 7.0 | 0.00 | 0.13 | 0.00 | 95 | 1009.1 |
| 20260901055514 | 61 | 296 | 2.0 | 5.0 | 0.00 | 0.13 | 0.00 | 95 | 1009.0 |
| 20260901052515 | 59 | 336 | 3.0 | 7.0 | 0.00 | 0.13 | 0.00 | 95 | 1008.8 |
| 20260901050515 | 59 | 279 | 3.0 | 7.0 | 0.00 | 0.13 | 0.00 | 95 | 1008.6 |
| 20260901045515 | 59 | 270 | 3.0 | 9.0 | 0.00 | 0.13 | 0.00 | 95 | 1008.6 |
| 20260901043515 | 59 | 279 | 4.0 | 7.0 | 0.00 | 0.13 | 0.00 | 95 | 1008.4 |
| 20260901040515 | 59 | 267 | 2.0 | 6.0 | 0.00 | 0.13 | 0.00 | 95 | 1008.3 |
| 20260901035515 | 59 | 266 | 2.0 | 5.0 | 0.00 | 0.13 | 0.00 | 95 | 1008.2 |
| 20260901032515 | 59 | 230 | 4.0 | 6.0 | 0.00 | 0.13 | 0.00 | 95 | 1008.0 |
| 20260901031515 | 59 | 221 | 2.0 | 6.0 | 0.00 | 0.13 | 0.00 | 95 | 1008.0 |
| 20260901025514 | 59 | 249 | 2.0 | 7.0 | 0.00 | 0.13 | 0.00 | 95 | 1007.9 |
| 20260901024515 | 59 | 251 | 3.0 | 6.0 | 0.00 | 0.13 | 0.00 | 95 | 1007.9 |
| 20260901023517 | 59 | 247 | 3.0 | 7.0 | 0.00 | 0.13 | 0.00 | 95 | 1007.8 |
| 20260901021515 | 59 | 242 | 3.0 | 7.0 | 0.00 | 0.13 | 0.00 | 95 | 1007.8 |
| 20260901020515 | 59 | 225 | 6.0 | 8.0 | 0.00 | 0.13 | 0.00 | 95 | 1007.8 |
| 20260901015515 | 59 | 241 | 5.0 | 9.0 | 0.00 | 0.13 | 0.00 | 94 | 1007.7 |
| 20260901011515 | 59 | 219 | 3.0 | 6.0 | 0.00 | 0.13 | 0.00 | 94 | 1007.5 |
| 20260901010515 | 60 | 223 | 3.0 | 9.0 | 0.00 | 0.13 | 0.00 | 94 | 1007.5 |
| 20260901005515 | 60 | 217 | 6.0 | 10.0 | 0.00 | 0.13 | 0.00 | 94 | 1007.6 |
| 20260901003515 | 60 | 229 | 5.0 | 8.0 | 0.00 | 0.13 | 0.00 | 94 | 1007.5 |
| 20260901001516 | 60 | 229 | 5.0 | 9.0 | 0.00 | 0.13 | 0.00 | 94 | 1007.4 |
| 20260901000514 | 60 | 231 | 5.0 | 8.0 | 0.00 | 0.13 | 0.00 | 94 | 1007.3 |
| 20260831234516 | 60 | 229 | 6.0 | 10.0 | 0.00 | 0.13 | 0.00 | 94 | 1007.3 |
| 20260831233515 | 60 | 233 | 5.0 | 8.0 | 0.00 | 0.13 | 0.00 | 94 | 1007.3 |
| 20260831232515 | 60 | 224 | 2.0 | 6.0 | 0.00 | 0.13 | 0.00 | 94 | 1007.3 |
| 20260831231516 | 61 | 225 | 3.0 | 8.0 | 0.00 | 0.13 | 0.00 | 94 | 1007.3 |
| 20260831230516 | 61 | 230 | 4.0 | 8.0 | 0.00 | 0.13 | 0.00 | 93 | 1007.3 |
| 20260831224515 | 61 | 202 | 3.0 | 7.0 | 0.00 | 0.13 | 0.00 | 93 | 1007.3 |
| 20260831222515 | 61 | 230 | 3.0 | 9.0 | 0.00 | 0.13 | 0.00 | 94 | 1007.3 |
| 20260831220515 | 61 | 224 | 2.0 | 6.0 | 0.00 | 0.13 | 0.00 | 94 | 1007.4 |
| 20260831212515 | 60 | 228 | 4.0 | 7.0 | 0.01 | 0.13 | 0.13 | 94 | 1007.1 |
| 20260831203516 | 60 | 212 | 0.0 | 6.0 | 0.00 | 0.13 | 0.13 | 93 | 1007.0 |
| 20260831202516 | 60 | 206 | 1.0 | 6.0 | 0.00 | 0.13 | 0.13 | 93 | 1006.8 |
| 20260831201516 | 60 | 206 | 1.0 | 5.0 | 0.00 | 0.13 | 0.13 | 93 | 1006.8 |
| 20260831200517 | 60 | 226 | 2.0 | 5.0 | 0.00 | 0.13 | 0.13 | 93 | 1006.8 |
| 20260831195516 | 60 | 227 | 2.0 | 5.0 | 0.00 | 0.13 | 0.13 | 93 | 1006.9 |
| 20260831193515 | 61 | 200 | 2.0 | 6.0 | 0.00 | 0.13 | 0.13 | 92 | 1006.8 |
| 20260831191516 | 61 | 200 | 2.0 | 6.0 | 0.00 | 0.13 | 0.13 | 92 | 1006.8 |
| 20260831185515 | 61 | 139 | 1.0 | 5.0 | 0.00 | 0.13 | 0.13 | 92 | 1006.4 |
| 20260831183515 | 61 | 197 | 0.0 | 2.0 | 0.00 | 0.13 | 0.13 | 91 | 1006.2 |
| 20260831170514 | 63 | 225 | 3.0 | 7.0 | 0.00 | 0.14 | 0.13 | 89 | 1006.0 |
| 20260831165515 | 63 | 292 | 5.0 | 8.0 | 0.00 | 0.14 | 0.13 | 89 | 1006.1 |
| 20260831164515 | 63 | 203 | 5.0 | 7.0 | 0.00 | 0.14 | 0.13 | 90 | 1006.1 |
| 20260831162515 | 63 | 235 | 5.0 | 8.0 | 0.02 | 0.14 | 0.13 | 90 | 1006.2 |
| 20260831161515 | 63 | 269 | 3.0 | 6.0 | 0.02 | 0.14 | 0.13 | 90 | 1006.1 |
| 20260831160514 | 63 | 243 | 3.0 | 7.0 | 0.02 | 0.14 | 0.13 | 90 | 1006.1 |
| 20260831150514 | 65 | 209 | 7.0 | 16.0 | 0.02 | 0.13 | 0.11 | 87 | 1006.1 |
| 20260831145514 | 66 | 221 | 9.0 | 13.0 | 0.01 | 0.12 | 0.10 | 84 | 1006.1 |
| 20260831144514 | 67 | 213 | 5.0 | 13.0 | 0.00 | 0.11 | 0.09 | 82 | 1006.0 |
| 20260831143514 | 67 | 242 | 9.0 | 13.0 | 0.00 | 0.11 | 0.09 | 81 | 1006.1 |
| 20260831141514 | 69 | 230 | 8.0 | 13.0 | 0.00 | 0.11 | 0.09 | 81 | 1006.1 |
| 20260831140514 | 69 | 212 | 7.0 | 12.0 | 0.00 | 0.11 | 0.09 | 82 | 1006.1 |
| 20260831135514 | 69 | 218 | 6.0 | 12.0 | 0.00 | 0.11 | 0.09 | 82 | 1005.9 |
| 20260831134514 | 68 | 225 | 7.0 | 14.0 | 0.00 | 0.11 | 0.09 | 81 | 1005.8 |
| 20260831133515 | 69 | 221 | 7.0 | 13.0 | 0.00 | 0.11 | 0.09 | 82 | 1005.9 |
| 20260831132516 | 69 | 219 | 8.0 | 14.0 | 0.00 | 0.11 | 0.09 | 83 | 1006.0 |